RH
83 70 64 67 65 61 63 61 57 56 56 54 52 50 49 50 49 46 42 42 41 41 43 47 49 45 50 51 56 53 54 51 51 48 45 43 46 43 43 42 45 44 51 52 54 57 54 37 41 47 48 56 62 68
90 81 68 61 61 61 62 62 60 56 55 55 53 50 47 47 49 50 48 45 45 42 42 51 54 55 54 54 52 54 48 50 47 49 45 45 44 47 47 44 37 45 42 49 47 46 38 45 48 50 51 61 69 75
97 90 81 67 63 66 63 62 63 60 56 56 54 51 47 45 45 46 49 48 46 45 46 49 53 51 56 57 52 49 50 49 45 41 44 45 46 44 47 46 38 37 41 48 50 47 49 54 51 53 60 66 71 75
98 97 90 75 64 65 67 64 63 62 60 58 56 51 49 50 48 46 46 47 48 46 48 48 46 46 46 48 49 48 47 49 48 47 49 46 44 41 44 37 41 34 38 40 44 46 50 52 53 61 67 72 81 83
98 98 96 87 75 63 60 65 64 63 62 60 59 56 55 55 53 49 48 47 50 50 51 50 47 46 46 46 48 49 49 50 51 52 53 51 47 49 51 51 47 39 43 50 48 49 52 56 64 69 74 79 80 84
98 98 98 96 86 77 68 64 62 63 63 61 60 59 59 58 56 52 51 48 50 51 51 56 55 52 51 50 51 51 52 52 52 52 54 53 54 55 60 61 46 46 47 49 54 56 55 63 70 78 83 80 79 80
85 93 97 97 94 84 73 66 64 62 60 57 56 57 56 55 54 55 56 56 52 54 56 60 56 53 54 56 56 59 60 61 60 64 64 65 64 65 65 60 50 55 57 56 53 55 61 72 81 80 80 80 80 75
62 71 83 90 96 93 85 79 74 69 62 56 53 53 52 52 53 56 57 56 56 56 57 62 64 58 60 62 71 74 72 77 83 84 80 74 68 69 68 55 54 52 52 53 55 61 76 80 86 86 84 80 78 71
50 49 50 65 79 89 92 91 85 81 75 70 68 68 64 57 55 55 56 57 57 60 62 66 64 68 69 73 77 78 82 86 85 82 81 81 76 73 58 56 54 56 58 62 71 80 88 91 86 84 81 79 73 56
46 50 48 45 49 67 84 91 93 94 91 88 85 84 79 73 69 66 67 67 66 65 65 62 63 68 68 75 79 83 85 86 84 78 78 75 65 55 58 64 64 66 70 78 87 89 89 87 82 83 79 69 58 53
34 39 44 45 42 42 56 77 85 93 97 97 94 93 94 91 91 88 85 82 79 73 68 66 65 67 70 75 81 86 85 82 81 74 80 70 57 57 61 68 75 82 89 91 92 91 89 85 84 78 65 59 52 48
30 28 34 37 38 39 38 53 70 81 88 90 94 98 99 99 99 98 90 85 82 80 77 75 75 80 85 87 92 95 97 94 90 88 90 77 71 67 71 77 82 86 89 94 93 87 88 86 71 62 58 52 49 42
36 34 31 31 32 38 44 46 51 65 80 85 88 93 96 99 99 97 87 87 85 82 81 82 85 91 93 94 97 98 99 97 93 93 89 84 80 83 87 88 87 87 86 86 88 85 76 64 63 57 53 46 40 38
34 34 36 37 35 34 37 42 47 52 54 72 88 90 92 97 96 96 92 89 89 90 90 91 92 96 97 99 99 98 98 98 97 93 88 91 94 96 91 88 87 88 89 86 80 71 69 60 56 50 44 42 40 37
33 36 37 39 40 40 39 40 40 42 54 58 64 82 89 90 95 95 95 95 96 96 96 95 95 97 97 99 98 98 98 97 97 98 98 98 97 97 93 89 88 88 86 80 70 65 62 56 48 43 39 36 32 29
32 38 40 41 43 40 39 38 37 39 47 53 62 69 71 81 94 96 95 96 97 97 99 98 98 98 98 98 98 98 98 98 98 98 95 97 97 94 93 91 89 83 72 68 65 62 53 43 38 35 31 29 30 33
26 35 38 41 42 42 40 40 45 49 48 52 56 58 63 69 72 77 85 93 95 97 97 97 97 97 98 98 98 98 98 98 96 94 92 91 88 85 79 75 71 68 65 59 51 43 40 37 34 30 27 29 34 40
32 33 34 39 40 41 42 42 46 55 55 58 61 64 65 65 70 72 73 75 81 89 93 94 93 97 97 97 98 97 96 89 89 89 85 80 75 73 72 68 61 54 46 42 40 37 35 32 30 30 34 37 40 46
32 34 36 39 44 45 45 46 48 47 49 51 59 64 66 67 69 71 72 73 75 76 77 82 92 95 96 92 91 89 86 83 82 79 78 76 72 66 58 50 46 44 41 38 36 35 34 36 40 43 45 49 53 56
31 32 35 43 43 43 51 52 50 51 50 53 55 58 60 65 68 71 73 76 76 76 75 78 88 88 86 84 78 76 75 72 69 65 61 57 51 47 44 41 41 41 42 42 40 41 42 43 47 51 55 60 66 67
35 36 37 40 47 52 56 59 60 59 57 58 61 66 69 72 72 75 74 75 76 73 80 77 72 73 74 71 66 60 56 55 53 51 48 43 42 43 43 44 45 44 45 48 51 52 55 55 53 55 66 71 69 65
40 42 45 40 42 57 64 62 63 62 62 64 66 69 71 76 76 77 77 74 76 77 72 72 72 68 62 61 59 54 50 46 45 43 44 47 48 47 48 51 55 56 59 60 61 60 60 64 70 73 77 73 65 61
44 47 48 48 50 54 68 71 68 68 71 76 80 81 83 87 86 84 78 74 72 66 66 62 61 58 57 55 52 51 44 43 49 53 56 56 56 57 59 62 66 66 60 57 62 62 64 69 71 69 66 65 66 68
55 57 52 55 63 63 73 74 82 85 85 88 90 88 89 86 82 82 78 76 74 67 61 58 56 54 52 52 47 49 53 58 61 65 64 63 62 60 62 61 60 60 53 46 45 46 48 49 55 62 65 66 68 72
74 70 65 75 91 93 77 72 82 95 96 96 95 90 90 88 88 86 80 76 71 66 63 62 58 55 57 61 60 60 62 64 67 71 70 67 61 55 48 44 45 44 45 47 48 49 50 52 57 59 61 67 71 78
98 89 82 86 96 98 91 93 94 96 96 97 96 94 87 85 83 79 77 79 74 69 60 61 63 61 61 63 66 66 68 68 67 65 63 53 46 47 48 47 46 47 52 54 55 56 58 59 58 59 63 71 77 79
97 94 96 95 98 98 98 99 98 97 97 96 95 93 90 84 80 82 83 80 76 70 63 60 62 64 66 68 68 68 69 68 60 51 51 54 54 53 52 52 52 54 56 57 60 63 64 66 67 68 71 73 77 78
96 96 98 98 98 98 98 98 98 97 95 91 89 91 88 84 86 81 75 73 71 68 65 68 71 74 75 75 74 72 67 60 56 55 59 56 55 57 57 58 60 60 61 63 65 68 70 72 74 75 77 78 80 82
98 98 97 97 94 91 90 90 89 87 85 81 77 76 73 70 69 69 72 75 76 77 76 77 80 82 81 76 66 57 52 50 51 54 57 58 57 58 59 58 59 60 61 64 68 72 73 77 79 78 79 85 84 86
87 87 85 83 85 86 81 79 77 74 70 69 70 72 74 75 76 78 79 82 85 89 88 82 74 68 59 55 56 55 54 56 57 57 55 53 50 47 43 42 43 46 50 56 61 67 71 75 79 80 82 85 88 89
74 73 72 72 75 73 71 69 68 67 68 72 74 75 77 80 82 84 86 83 78 71 62 55 53 55 56 58 61 61 60 57 52 47 42 39 37 37 38 39 41 44 48 53 57 61 68 75 81 82 84 88 90 92
79 80 80 81 80 80 77 73 72 71 73 73 73 72 74 72 69 65 62 57 54 55 56 58 60 61 60 59 56 51 43 37 35 37 36 36 37 38 39 41 44 48 53 57 62 65 70 76 82 88 92 92 93 94
51 48 47 49 50 51 51 43 44 47 49 52 54 55 56 58 60 59 58 57 59 59 58 59 56 51 44 37 32 32 34 36 38 38 40 42 44 44 44 45 49 53 57 61 64 69 74 77 83 88 91 95 98 99